Date,Time,Wetness (Wet Dry or Ice),Wind Speed (m/s),Temperature (C),Humidity (%),Pressure (mb),Radiation (W/m^2)
2020-10-27,23:45:00,DRY,2.95,9.55,19.0,777.00,1.4
2020-10-27,23:50:00,DRY,2.77,9.73,19.0,777.00,2.1
2020-10-27,23:55:00,DRY,2.75,10.10,17.5,777.00,1.8
2020-10-28,00:00:00,DRY,2.50,10.13,17.3,776.67,1.2
2020-10-28,00:05:00,DRY,2.30,9.80,18.0,776.50,1.2
2020-10-28,00:10:00,DRY,3.03,9.80,18.3,777.00,1.2
2020-10-28,00:15:00,DRY,2.95,9.75,18.5,776.50,1.0
2020-10-28,00:20:00,DRY,2.93,9.43,19.3,776.00,1.2
2020-10-28,00:25:00,DRY,3.15,9.65,19.0,776.00,0.5
2020-10-28,00:30:00,DRY,2.90,9.97,18.0,776.33,1.1
2020-10-28,00:35:00,DRY,3.10,9.70,18.5,776.00,1.1
2020-10-28,00:40:00,DRY,2.63,9.57,18.7,776.00,0.5
2020-10-28,00:45:00,DRY,2.55,9.50,18.5,776.00,1.3
2020-10-28,00:50:00,DRY,2.47,9.77,17.7,776.00,1.0
2020-10-28,00:55:00,DRY,2.85,9.90,18.0,776.00,1.1
2020-10-28,01:00:00,DRY,2.27,9.60,18.3,776.00,0.8
2020-10-28,01:05:00,DRY,1.75,9.75,18.0,776.00,1.7
2020-10-28,01:10:00,DRY,2.57,9.63,18.3,776.00,0.8
2020-10-28,01:15:00,DRY,2.45,9.25,19.5,776.00,1.6
2020-10-28,01:20:00,DRY,2.60,9.37,18.7,776.00,1.0
2020-10-28,01:25:00,DRY,2.70,9.10,20.5,776.00,0.7
2020-10-28,01:30:00,DRY,2.63,9.33,19.3,776.00,1.2
2020-10-28,01:35:00,DRY,2.80,9.50,19.0,776.00,1.4
2020-10-28,01:40:00,DRY,2.23,9.20,21.0,776.00,0.6
2020-10-28,01:45:00,DRY,2.65,9.15,21.0,776.00,1.8
2020-10-28,01:50:00,DRY,2.07,9.07,21.0,776.00,1.5
2020-10-28,01:55:00,DRY,2.25,9.40,19.5,776.00,1.5
2020-10-28,02:00:00,DRY,1.83,9.73,18.7,776.00,1.2
2020-10-28,02:05:00,DRY,2.00,9.85,18.0,776.00,0.8
2020-10-28,02:10:00,DRY,1.93,9.97,18.0,776.00,0.9
2020-10-28,02:15:00,DRY,2.10,9.45,19.0,776.00,1.2
2020-10-28,02:20:00,DRY,2.07,9.60,18.7,776.00,1.0
2020-10-28,02:25:00,DRY,1.75,9.65,18.5,776.00,0.9
2020-10-28,02:30:00,DRY,2.40,9.40,19.3,776.00,1.6
2020-10-28,02:35:00,DRY,2.60,9.05,20.5,776.00,1.9
2020-10-28,02:40:00,DRY,2.63,9.43,20.3,776.00,0.8
2020-10-28,02:45:00,DRY,2.15,9.25,21.0,775.50,1.8
2020-10-28,02:50:00,DRY,2.53,9.10,21.7,775.00,1.0
2020-10-28,02:55:00,DRY,1.45,9.05,21.0,775.50,1.8
2020-10-28,03:00:00,DRY,1.57,9.40,20.7,775.00,1.8
2020-10-28,03:05:00,DRY,1.90,9.75,19.0,775.00,1.0
2020-10-28,03:10:00,DRY,1.67,9.40,21.0,775.00,0.8
2020-10-28,03:15:00,DRY,2.40,8.80,23.0,775.00,1.3
2020-10-28,03:20:00,DRY,2.80,8.80,23.0,775.00,1.6
2020-10-28,03:25:00,DRY,3.00,8.65,23.5,775.00,1.9
2020-10-28,03:30:00,DRY,3.00,9.40,21.7,775.00,1.2
2020-10-28,03:35:00,DRY,3.40,8.95,22.0,775.00,1.0
2020-10-28,03:40:00,DRY,2.27,8.90,22.3,775.00,0.8
2020-10-28,03:45:00,DRY,2.35,9.40,19.5,775.00,1.4
2020-10-28,03:50:00,DRY,2.27,9.67,18.0,775.00,1.3
2020-10-28,03:55:00,DRY,2.00,10.25,16.5,775.00,1.4
2020-10-28,04:00:00,DRY,1.90,10.30,16.7,775.00,0.6
2020-10-28,04:05:00,DRY,1.95,10.25,16.5,775.00,0.9
2020-10-28,04:10:00,DRY,2.30,10.00,16.7,775.00,2.1
2020-10-28,04:15:00,DRY,2.15,10.20,16.0,775.00,2.4
2020-10-28,04:20:00,DRY,2.37,10.17,16.0,775.00,1.3
2020-10-28,04:25:00,DRY,2.20,9.95,17.0,775.00,0.4
2020-10-28,04:30:00,DRY,2.13,10.57,15.3,775.00,1.2
2020-10-28,04:35:00,DRY,2.40,10.50,15.5,775.00,1.2
2020-10-28,04:40:00,DRY,2.23,10.00,16.7,775.00,0.8
2020-10-28,04:45:00,DRY,2.35,9.85,18.0,775.00,0.6
2020-10-28,04:50:00,DRY,2.50,9.67,19.0,775.00,1.7
2020-10-28,04:55:00,DRY,2.95,9.50,20.0,775.00,1.4
2020-10-28,05:00:00,DRY,3.37,9.40,20.0,775.00,1.2
2020-10-28,05:05:00,DRY,3.40,9.45,19.5,775.00,1.0
2020-10-28,05:10:00,DRY,3.33,9.87,18.3,775.00,0.8
2020-10-28,05:15:00,DRY,3.70,10.00,18.0,775.00,1.1
2020-10-28,05:20:00,DRY,3.90,10.07,17.0,775.00,1.1
2020-10-28,05:25:00,DRY,3.15,10.00,17.0,775.00,1.4
2020-10-28,05:30:00,DRY,3.27,10.30,16.3,775.00,1.0
2020-10-28,05:35:00,DRY,3.20,10.40,16.5,775.00,1.6
2020-10-28,05:40:00,DRY,3.23,10.27,16.3,775.00,1.4
2020-10-28,05:45:00,DRY,3.50,10.15,16.5,775.00,1.2
2020-10-28,05:50:00,DRY,3.90,10.20,17.0,775.00,1.3
2020-10-28,05:55:00,DRY,3.20,10.30,16.0,775.00,1.1
2020-10-28,06:00:00,DRY,2.97,10.30,15.7,775.00,1.5
2020-10-28,06:05:00,DRY,2.70,10.50,15.0,775.00,1.1
2020-10-28,06:10:00,DRY,3.20,10.43,15.7,775.00,1.0
2020-10-28,06:15:00,DRY,3.20,10.15,16.0,775.00,2.0
2020-10-28,06:20:00,DRY,3.30,10.10,16.7,775.00,2.1
2020-10-28,06:25:00,DRY,3.00,9.95,17.0,775.00,1.2
2020-10-28,06:30:00,DRY,3.70,9.80,17.0,775.00,1.2
2020-10-28,06:35:00,DRY,3.60,10.10,17.0,775.00,0.9
2020-10-28,06:40:00,DRY,3.67,10.07,16.3,775.00,1.2
2020-10-28,06:45:00,DRY,3.05,9.75,17.0,775.00,1.6
2020-10-28,06:50:00,DRY,3.30,9.97,17.0,775.00,1.6
2020-10-28,06:55:00,DRY,3.40,10.10,17.0,775.00,1.4
2020-10-28,07:00:00,DRY,3.27,10.03,18.0,775.00,1.2
2020-10-28,07:05:00,DRY,3.70,9.80,18.0,775.00,1.5
2020-10-28,07:10:00,DRY,3.13,9.80,18.3,775.00,2.7
2020-10-28,07:15:00,DRY,3.30,10.00,18.0,775.00,5.3
2020-10-28,07:20:00,DRY,3.37,9.87,18.3,775.00,7.7
2020-10-28,07:25:00,DRY,3.90,9.75,18.5,775.00,12.5
2020-10-28,07:30:00,DRY,3.23,9.93,18.3,775.33,19.6
2020-10-28,07:35:00,DRY,3.00,10.00,18.0,776.00,26.1
2020-10-28,07:40:00,DRY,2.33,10.13,17.7,776.00,32.0
2020-10-28,07:45:00,DRY,2.60,10.10,18.0,776.00,37.6
2020-10-28,07:50:00,DRY,2.50,10.33,17.7,776.00,44.6
2020-10-28,07:55:00,DRY,1.95,10.40,17.0,776.00,50.5
2020-10-28,08:00:00,DRY,2.17,10.57,16.7,776.00,104.2
2020-10-28,08:05:00,DRY,1.30,10.55,16.5,776.00,145.9
2020-10-28,08:10:00,DRY,1.33,10.50,16.7,776.00,169.5
2020-10-28,08:15:00,DRY,0.80,10.05,18.0,776.00,190.6
2020-10-28,08:20:00,DRY,0.77,10.13,17.3,776.00,213.8
2020-10-28,08:25:00,DRY,1.65,10.75,16.0,776.00,240.1
2020-10-28,08:30:00,DRY,1.37,10.93,15.7,776.00,263.7
2020-10-28,08:35:00,DRY,1.70,10.65,16.5,776.00,287.6
2020-10-28,08:40:00,DRY,0.93,10.73,17.0,776.00,313.0
2020-10-28,08:45:00,DRY,1.45,10.85,16.5,776.00,335.8
2020-10-28,08:50:00,DRY,1.57,11.00,16.7,776.00,357.1
2020-10-28,08:55:00,DRY,2.10,10.70,18.0,776.00,381.4
2020-10-28,09:00:00,DRY,2.03,10.53,19.0,776.00,405.2
2020-10-28,09:05:00,DRY,2.95,10.65,18.0,776.00,425.4
2020-10-28,09:10:00,DRY,2.30,10.70,19.3,776.00,444.9
2020-10-28,09:15:00,DRY,3.10,10.70,19.5,776.00,465.9
2020-10-28,09:20:00,DRY,3.83,10.77,19.0,776.00,489.0
2020-10-28,09:25:00,DRY,2.10,10.90,19.0,776.00,509.8
2020-10-28,09:30:00,DRY,4.30,11.00,19.7,776.00,533.2
2020-10-28,09:35:00,DRY,3.70,11.15,19.5,776.00,553.1
2020-10-28,09:40:00,DRY,3.83,11.27,20.0,776.00,573.0
2020-10-28,09:45:00,DRY,4.25,11.30,18.0,776.50,592.3
2020-10-28,09:50:00,DRY,4.47,11.40,19.0,776.00,613.3
2020-10-28,09:55:00,DRY,4.65,11.50,19.5,776.00,633.4
2020-10-28,10:00:00,DRY,3.57,11.73,18.7,776.33,649.2
2020-10-28,10:05:00,DRY,3.45,11.65,18.5,776.00,665.2
2020-10-28,10:10:00,DRY,3.70,11.83,19.7,776.00,678.6
2020-10-28,10:15:00,DRY,3.85,11.85,20.0,776.50,695.5
2020-10-28,10:20:00,DRY,4.30,12.03,18.7,776.00,714.0
2020-10-28,10:25:00,DRY,3.50,12.05,19.0,776.00,729.0
2020-10-28,10:30:00,DRY,4.27,12.00,19.3,776.00,742.2
2020-10-28,10:35:00,DRY,5.40,12.05,19.0,776.50,754.2
2020-10-28,10:40:00,DRY,5.10,12.13,18.7,776.67,766.8
2020-10-28,10:45:00,DRY,4.20,12.15,20.0,776.50,781.2
2020-10-28,10:50:00,DRY,3.73,12.30,19.3,777.00,796.2
2020-10-28,10:55:00,DRY,2.60,12.50,22.5,777.00,809.8
2020-10-28,11:00:00,DRY,2.33,12.70,20.0,777.00,818.1
2020-10-28,11:05:00,DRY,2.65,12.75,20.0,776.50,824.8
2020-10-28,11:10:00,DRY,2.70,12.60,21.0,776.67,837.3
2020-10-28,11:15:00,DRY,2.60,12.55,18.0,777.00,846.2
2020-10-28,11:20:00,DRY,2.87,12.53,17.0,776.67,855.0
2020-10-28,11:25:00,DRY,3.10,12.80,17.5,776.50,862.4
2020-10-28,11:30:00,DRY,2.90,12.77,17.0,776.00,872.7
2020-10-28,11:35:00,DRY,2.60,13.05,15.0,776.00,884.3
2020-10-28,11:40:00,DRY,3.37,12.90,14.3,776.00,893.5
2020-10-28,11:45:00,DRY,3.10,13.05,13.5,776.00,902.5
2020-10-28,11:50:00,DRY,2.87,13.07,13.7,776.00,908.3
2020-10-28,11:55:00,DRY,3.90,13.30,12.5,776.00,914.2
2020-10-28,12:00:00,DRY,2.00,13.10,11.3,776.00,917.7
2020-10-28,12:05:00,DRY,2.70,13.00,12.5,776.00,920.0
2020-10-28,12:10:00,DRY,2.63,13.03,10.3,776.00,927.5
2020-10-28,12:15:00,DRY,2.75,13.15,10.5,776.00,932.8
2020-10-28,12:20:00,DRY,2.87,13.23,11.0,776.00,940.0
2020-10-28,12:25:00,DRY,2.30,13.35,12.0,776.00,945.2
2020-10-28,12:30:00,DRY,2.20,13.70,13.0,776.00,944.5
2020-10-28,12:35:00,,,,,,
2020-10-28,12:40:00,DRY,1.90,13.45,13.0,776.00,955.0
2020-10-28,12:45:00,DRY,2.40,13.85,15.0,776.00,959.5
2020-10-28,12:50:00,DRY,1.83,13.33,13.3,776.00,957.6
2020-10-28,12:55:00,DRY,2.10,13.65,12.5,776.00,960.4
2020-10-28,13:00:00,DRY,2.77,13.43,11.7,776.00,956.0
2020-10-28,13:05:00,DRY,2.35,13.35,12.0,776.00,958.0
2020-10-28,13:10:00,DRY,2.43,13.43,13.3,776.00,959.4
2020-10-28,13:15:00,DRY,2.45,13.10,12.0,776.00,957.6
2020-10-28,13:20:00,DRY,2.93,13.40,12.3,776.00,952.5
2020-10-28,13:25:00,DRY,2.55,13.30,12.5,776.00,948.1
2020-10-28,13:30:00,DRY,3.00,13.00,11.0,776.00,947.5
2020-10-28,13:35:00,DRY,3.30,13.50,15.0,776.00,936.0
2020-10-28,13:40:00,DRY,3.20,13.10,12.0,776.00,935.5
2020-10-28,13:45:00,DRY,3.45,12.75,12.5,776.00,931.6
2020-10-28,13:50:00,DRY,2.67,12.70,10.3,776.00,924.1
2020-10-28,13:55:00,DRY,2.55,12.90,11.5,776.00,917.0
2020-10-28,14:00:00,DRY,3.07,13.17,12.7,776.00,912.3
2020-10-28,14:05:00,DRY,3.40,12.75,13.0,775.00,905.0
2020-10-28,14:10:00,DRY,3.13,12.70,14.7,775.33,898.7
2020-10-28,14:15:00,DRY,3.15,12.55,15.5,775.00,887.3
2020-10-28,14:20:00,DRY,3.17,12.63,11.0,775.33,877.3
2020-10-28,14:25:00,DRY,3.65,12.80,14.0,775.00,866.8
2020-10-28,14:30:00,DRY,3.67,12.83,13.0,775.00,854.0
2020-10-28,14:35:00,DRY,3.95,12.75,14.5,775.00,843.0
2020-10-28,14:40:00,DRY,4.13,12.70,14.3,775.00,833.0
2020-10-28,14:45:00,DRY,4.45,12.45,14.0,775.00,822.0
2020-10-28,14:50:00,DRY,3.93,12.33,14.7,775.00,811.8
2020-10-28,14:55:00,DRY,4.25,12.10,14.0,775.00,797.8
2020-10-28,15:00:00,DRY,4.07,12.03,14.3,775.00,780.8
2020-10-28,15:05:00,DRY,3.75,11.95,19.0,775.00,765.5
2020-10-28,15:10:00,DRY,3.73,11.77,17.7,775.00,755.2
2020-10-28,15:15:00,DRY,4.30,11.90,15.5,775.00,744.5
2020-10-28,15:20:00,DRY,4.73,12.03,16.0,775.00,736.4
2020-10-28,15:25:00,DRY,4.20,12.00,14.5,775.00,719.6
2020-10-28,15:30:00,DRY,3.73,11.97,16.0,775.00,702.3
2020-10-28,15:35:00,DRY,3.75,11.85,16.5,775.00,685.7
2020-10-28,15:40:00,DRY,4.33,11.77,14.0,775.00,669.7
2020-10-28,15:45:00,DRY,4.25,11.85,16.0,775.00,652.8
2020-10-28,15:50:00,DRY,4.93,11.87,14.7,775.00,634.8
2020-10-28,15:55:00,DRY,4.10,11.75,15.0,775.00,615.5
2020-10-28,16:00:00,DRY,4.60,11.83,13.3,775.00,596.0
2020-10-28,16:05:00,DRY,5.30,11.80,14.5,775.00,576.5
2020-10-28,16:10:00,DRY,5.20,11.63,16.7,775.00,556.3
2020-10-28,16:15:00,DRY,4.15,11.55,15.0,775.00,536.5
2020-10-28,16:20:00,DRY,3.50,11.27,19.0,775.00,516.5
2020-10-28,16:25:00,DRY,3.20,11.40,17.5,775.00,494.5
2020-10-28,16:30:00,DRY,3.43,11.23,16.3,775.00,475.0
2020-10-28,16:35:00,DRY,3.35,11.40,14.5,775.00,453.7
2020-10-28,16:40:00,DRY,3.37,11.37,14.0,775.00,433.1
2020-10-28,16:45:00,DRY,3.45,11.40,14.5,775.00,412.1
2020-10-28,16:50:00,DRY,2.93,11.43,14.3,775.00,390.1
2020-10-28,16:55:00,DRY,3.05,11.40,13.5,775.00,369.1
2020-10-28,17:00:00,DRY,2.83,11.27,14.3,775.00,346.4
2020-10-28,17:05:00,DRY,2.95,11.10,14.5,775.00,324.3
2020-10-28,17:10:00,DRY,2.53,11.23,13.3,775.00,300.8
2020-10-28,17:15:00,DRY,2.20,11.20,12.5,775.00,278.2
2020-10-28,17:20:00,DRY,1.63,11.20,12.3,775.33,255.9
2020-10-28,17:25:00,DRY,2.00,11.30,11.5,775.00,233.8
2020-10-28,17:30:00,DRY,2.03,11.40,11.7,775.00,210.8
2020-10-28,17:35:00,DRY,2.15,11.40,12.0,775.00,190.2
2020-10-28,17:40:00,DRY,1.77,11.47,12.7,775.00,169.2
2020-10-28,17:45:00,DRY,1.80,11.55,13.0,775.50,148.1
2020-10-28,17:50:00,DRY,1.80,11.47,12.7,775.33,122.8
2020-10-28,17:55:00,DRY,2.05,11.40,13.0,775.00,97.4
2020-10-28,18:00:00,DRY,1.80,11.27,13.0,775.00,74.1
2020-10-28,18:05:00,DRY,2.60,11.30,13.0,775.50,52.9
2020-10-28,18:10:00,DRY,2.40,11.30,13.0,776.00,37.7
2020-10-28,18:15:00,DRY,2.70,11.30,13.0,775.50,26.6
2020-10-28,18:20:00,DRY,2.50,11.27,12.3,775.67,19.2
2020-10-28,18:25:00,DRY,2.70,11.25,12.5,776.00,13.2
2020-10-28,18:30:00,DRY,2.90,11.23,12.0,776.00,8.1
2020-10-28,18:35:00,DRY,2.75,11.50,11.0,776.00,4.5
2020-10-28,18:40:00,DRY,2.70,11.73,10.0,776.00,2.4
2020-10-28,18:45:00,DRY,2.75,11.85,10.0,776.00,1.4
2020-10-28,18:50:00,DRY,2.57,11.93,10.0,776.00,1.1
2020-10-28,18:55:00,DRY,2.05,11.70,10.0,776.00,1.1
2020-10-28,19:00:00,DRY,2.13,11.40,11.0,776.00,2.1
2020-10-28,19:05:00,DRY,2.20,11.30,11.0,776.00,1.0
2020-10-28,19:10:00,DRY,2.00,11.27,12.0,776.00,1.4
2020-10-28,19:15:00,DRY,1.65,11.30,12.0,776.00,0.9
2020-10-28,19:20:00,DRY,2.00,11.20,12.0,776.00,0.9
2020-10-28,19:25:00,DRY,2.20,10.85,13.0,776.00,1.0
2020-10-28,19:30:00,DRY,2.50,10.23,13.3,776.00,1.4
2020-10-28,19:35:00,DRY,1.80,10.10,13.0,776.00,1.1
2020-10-28,19:40:00,DRY,2.43,9.97,14.0,776.00,0.6
2020-10-28,19:45:00,DRY,2.30,9.95,14.5,776.00,1.2
2020-10-28,19:50:00,DRY,2.17,10.03,15.0,776.00,1.0
2020-10-28,19:55:00,DRY,2.10,10.30,14.0,776.00,0.8
2020-10-28,20:00:00,DRY,2.17,10.47,13.0,776.00,1.6
2020-10-28,20:05:00,DRY,2.05,10.50,13.0,776.00,0.6
2020-10-28,20:10:00,DRY,2.03,10.70,12.0,776.00,1.9
2020-10-28,20:15:00,DRY,2.10,11.05,11.0,776.00,1.4
2020-10-28,20:20:00,DRY,1.70,11.07,12.0,776.00,1.1
2020-10-28,20:25:00,DRY,2.10,11.05,12.0,776.00,1.6
2020-10-28,20:30:00,DRY,1.83,11.03,12.0,776.00,1.4
2020-10-28,20:35:00,DRY,1.60,10.75,12.0,776.00,1.3
2020-10-28,20:40:00,DRY,1.57,10.60,12.0,776.00,1.4
2020-10-28,20:45:00,DRY,2.40,10.85,11.5,776.00,1.7
2020-10-28,20:50:00,DRY,1.87,11.07,11.0,776.00,0.7
2020-10-28,20:55:00,DRY,2.00,11.10,11.0,776.00,0.2
2020-10-28,21:00:00,DRY,2.43,10.97,12.0,776.00,1.1
2020-10-28,21:05:00,DRY,1.60,10.80,12.0,776.00,2.8
2020-10-28,21:10:00,DRY,2.10,10.20,13.0,776.00,1.5
2020-10-28,21:15:00,DRY,1.80,10.35,12.0,776.00,0.2
2020-10-28,21:20:00,DRY,2.37,10.37,12.0,776.00,1.2
2020-10-28,21:25:00,DRY,2.40,10.25,13.0,776.00,1.1
2020-10-28,21:30:00,DRY,2.33,10.13,13.0,776.00,1.7
2020-10-28,21:35:00,DRY,2.55,10.35,12.0,776.00,1.9
2020-10-28,21:40:00,DRY,2.73,10.27,12.3,776.00,1.0
2020-10-28,21:45:00,DRY,3.10,10.35,12.5,776.00,1.4
2020-10-28,21:50:00,DRY,3.27,10.30,13.3,776.33,1.3
2020-10-28,21:55:00,DRY,3.20,10.20,13.5,776.00,1.2
2020-10-28,22:00:00,DRY,3.17,10.23,12.7,776.00,0.9
2020-10-28,22:05:00,DRY,3.30,10.30,13.0,776.50,1.3
2020-10-28,22:10:00,DRY,2.37,10.20,13.0,776.67,1.1
2020-10-28,22:15:00,DRY,3.35,10.15,13.0,776.00,1.0
2020-10-28,22:20:00,DRY,3.20,9.93,15.3,776.00,1.7
2020-10-28,22:25:00,DRY,3.85,10.15,20.0,776.00,1.2
2020-10-28,22:30:00,DRY,3.70,9.73,26.7,776.67,1.1
2020-10-28,22:35:00,DRY,3.65,9.85,24.0,776.00,0.8
2020-10-28,22:40:00,DRY,3.47,9.83,17.0,776.00,1.2
2020-10-28,22:45:00,DRY,3.70,10.25,14.0,776.00,1.7
2020-10-28,22:50:00,DRY,3.07,10.17,14.0,776.67,2.1
2020-10-28,22:55:00,DRY,2.55,10.05,17.0,777.00,1.1
2020-10-28,23:00:00,DRY,2.13,10.10,24.7,776.00,1.5
2020-10-28,23:05:00,DRY,2.00,9.80,25.0,776.00,1.0
2020-10-28,23:10:00,DRY,2.03,10.17,16.3,776.00,1.0
2020-10-28,23:15:00,DRY,2.10,10.30,15.0,776.00,1.1
2020-10-28,23:20:00,DRY,2.67,10.10,13.0,776.00,0.9
2020-10-28,23:25:00,DRY,2.45,10.15,13.0,776.00,0.8
2020-10-28,23:30:00,DRY,2.70,10.13,17.3,776.00,1.1
2020-10-28,23:35:00,DRY,2.70,9.85,29.0,776.00,1.4
2020-10-28,23:40:00,DRY,3.73,10.10,18.3,776.00,0.7
2020-10-28,23:45:00,DRY,3.65,10.30,17.5,776.00,1.1
2020-10-28,23:50:00,DRY,3.43,10.17,25.7,776.00,1.5
2020-10-28,23:55:00,DRY,4.40,10.50,13.0,776.00,1.0
2020-10-29,00:00:00,DRY,3.47,10.53,16.7,776.00,0.9
2020-10-29,00:05:00,DRY,2.45,9.90,34.5,776.00,1.0
2020-10-29,00:10:00,DRY,2.43,9.73,34.7,776.00,0.7
2020-10-29,00:15:00,DRY,2.50,9.55,29.0,776.00,0.6
2020-10-29,00:20:00,DRY,3.07,9.60,26.0,776.00,0.8
2020-10-29,00:25:00,DRY,3.45,9.75,22.5,776.00,0.9
2020-10-29,00:30:00,DRY,2.87,9.87,24.0,776.00,1.1
2020-10-29,00:35:00,DRY,2.00,9.35,33.0,776.00,1.5
2020-10-29,00:40:00,DRY,2.93,9.27,30.7,776.00,1.1
2020-10-29,00:45:00,DRY,3.10,9.70,26.5,776.00,2.1
2020-10-29,00:50:00,DRY,2.57,9.80,21.7,776.00,0.9
2020-10-29,00:55:00,DRY,2.00,9.65,22.5,776.00,2.1
2020-10-29,01:00:00,DRY,2.33,9.63,23.0,776.00,1.2
2020-10-29,01:05:00,DRY,2.65,9.75,24.0,776.00,0.5
2020-10-29,01:10:00,DRY,2.37,9.63,24.0,776.00,0.6
2020-10-29,01:15:00,DRY,2.05,9.60,23.5,776.00,1.8
2020-10-29,01:20:00,DRY,2.17,9.53,22.7,776.00,1.1
2020-10-29,01:25:00,DRY,1.80,9.50,24.5,776.00,1.4
2020-10-29,01:30:00,DRY,2.13,9.70,26.7,776.00,1.4
2020-10-29,01:35:00,DRY,2.10,9.85,28.0,776.00,0.4
2020-10-29,01:40:00,DRY,2.50,9.83,28.0,776.00,0.8
2020-10-29,01:45:00,DRY,2.10,9.65,27.5,776.00,1.0
2020-10-29,01:50:00,DRY,3.00,9.53,24.7,776.00,1.3
2020-10-29,01:55:00,DRY,2.35,9.65,23.5,776.00,1.2
2020-10-29,02:00:00,DRY,2.77,9.57,24.0,776.00,1.7
2020-10-29,02:05:00,DRY,2.90,9.50,24.5,776.00,1.9
2020-10-29,02:10:00,DRY,2.47,9.53,24.0,776.00,1.4
2020-10-29,02:15:00,DRY,2.75,9.60,22.5,775.50,0.9
2020-10-29,02:20:00,DRY,3.27,9.57,23.3,775.33,1.4
2020-10-29,02:25:00,DRY,2.65,9.40,25.5,776.00,0.8
2020-10-29,02:30:00,DRY,3.00,9.50,29.0,775.33,1.0
2020-10-29,02:35:00,DRY,3.10,9.25,33.5,775.00,0.9
2020-10-29,02:40:00,DRY,3.17,9.20,32.7,775.00,1.5
2020-10-29,02:45:00,DRY,2.50,9.35,30.0,775.00,1.0
2020-10-29,02:50:00,DRY,3.20,9.33,31.3,775.00,1.2
2020-10-29,02:55:00,DRY,3.50,9.25,34.5,775.00,1.1
2020-10-29,03:00:00,DRY,3.63,9.10,38.7,775.00,1.2
2020-10-29,03:05:00,DRY,3.75,9.05,40.5,775.00,1.1
2020-10-29,03:10:00,DRY,3.23,9.13,39.7,775.00,1.4
2020-10-29,03:15:00,DRY,2.50,9.25,38.0,775.00,1.2
2020-10-29,03:20:00,DRY,3.07,9.10,29.3,775.00,0.5
2020-10-29,03:25:00,DRY,3.20,9.10,29.5,775.00,1.2
2020-10-29,03:30:00,DRY,3.30,9.00,31.3,775.00,1.2
2020-10-29,03:35:00,DRY,4.35,9.20,34.5,775.00,1.1
2020-10-29,03:40:00,DRY,3.80,9.20,37.0,775.00,1.3
2020-10-29,03:45:00,DRY,3.00,9.20,38.0,775.00,1.1
2020-10-29,03:50:00,DRY,3.83,9.13,39.3,775.00,1.0
2020-10-29,03:55:00,DRY,3.35,9.35,36.5,775.00,2.1
2020-10-29,04:00:00,DRY,3.63,9.33,33.3,775.00,1.8
2020-10-29,04:05:00,DRY,4.65,9.40,31.5,775.00,1.1
2020-10-29,04:10:00,DRY,4.37,9.47,33.7,775.00,1.1
2020-10-29,04:15:00,DRY,3.85,9.20,33.5,775.00,1.1
2020-10-29,04:20:00,DRY,3.90,9.30,27.3,775.00,1.2
2020-10-29,04:25:00,DRY,3.55,9.40,25.5,775.00,1.9
2020-10-29,04:30:00,DRY,3.67,9.57,22.7,775.00,1.4
2020-10-29,04:35:00,DRY,4.25,9.40,21.0,775.00,1.2
2020-10-29,04:40:00,DRY,4.40,9.40,19.3,775.00,1.4
2020-10-29,04:45:00,DRY,3.70,9.15,19.0,775.00,1.5
2020-10-29,04:50:00,DRY,5.07,9.53,21.3,775.00,1.1
2020-10-29,04:55:00,DRY,4.65,9.70,16.0,775.00,1.5
2020-10-29,05:00:00,DRY,3.90,9.83,20.0,775.00,0.7
2020-10-29,05:05:00,DRY,3.75,9.90,21.0,775.00,1.4
2020-10-29,05:10:00,DRY,3.93,9.73,24.3,775.00,1.1
2020-10-29,05:15:00,DRY,4.30,9.80,25.5,774.50,1.1
2020-10-29,05:20:00,DRY,3.80,9.73,27.0,775.00,1.1
2020-10-29,05:25:00,DRY,3.90,9.90,26.5,775.00,1.2
2020-10-29,05:30:00,DRY,4.30,10.03,24.3,775.00,1.2
2020-10-29,05:35:00,DRY,4.00,9.90,24.0,775.00,1.4
2020-10-29,05:40:00,DRY,4.33,10.00,23.3,775.00,1.3
2020-10-29,05:45:00,DRY,3.05,9.75,24.0,775.00,0.8
2020-10-29,05:50:00,DRY,4.37,9.90,25.7,775.00,1.3
2020-10-29,05:55:00,DRY,3.10,9.90,25.0,775.00,1.5
2020-10-29,06:00:00,DRY,4.13,9.87,27.3,775.00,1.1
2020-10-29,06:05:00,DRY,4.20,9.85,21.5,775.00,1.7
2020-10-29,06:10:00,DRY,4.90,10.03,16.0,775.00,1.4
2020-10-29,06:15:00,DRY,3.90,9.80,14.5,774.50,1.2
2020-10-29,06:20:00,DRY,4.30,9.70,13.7,774.67,1.4
2020-10-29,06:25:00,DRY,3.65,9.65,13.5,775.00,1.2
2020-10-29,06:30:00,DRY,3.83,10.03,12.3,775.00,1.0
2020-10-29,06:35:00,DRY,3.75,9.90,13.0,775.00,1.3
2020-10-29,06:40:00,DRY,3.80,9.53,13.3,775.00,1.2
2020-10-29,06:45:00,DRY,4.00,9.45,14.5,775.00,1.1
2020-10-29,06:50:00,DRY,4.60,9.50,15.3,775.00,1.2
2020-10-29,06:55:00,DRY,4.45,9.60,14.5,775.00,1.3
2020-10-29,07:00:00,DRY,3.57,9.77,13.0,775.00,0.9
2020-10-29,07:05:00,DRY,3.85,10.00,11.0,775.00,1.4
2020-10-29,07:10:00,DRY,4.33,10.17,11.0,775.00,2.7
2020-10-29,07:15:00,DRY,5.20,10.10,11.5,775.00,3.2
2020-10-29,07:20:00,DRY,4.50,10.10,11.0,775.00,5.6
2020-10-29,07:25:00,DRY,4.30,10.10,11.5,775.00,7.2
2020-10-29,07:30:00,DRY,4.60,10.10,12.3,775.00,9.2
2020-10-29,07:35:00,DRY,4.40,10.25,13.0,775.00,13.6
2020-10-29,07:40:00,DRY,4.17,10.57,15.0,775.00,21.0
2020-10-29,07:45:00,DRY,5.10,10.45,14.0,775.00,31.0
2020-10-29,07:50:00,DRY,4.50,10.00,20.0,775.00,46.9
2020-10-29,07:55:00,DRY,4.30,9.90,16.5,775.00,66.3
2020-10-29,08:00:00,DRY,3.93,9.50,23.3,775.00,87.5
2020-10-29,08:05:00,DRY,5.05,9.15,25.5,775.00,116.1
2020-10-29,08:10:00,DRY,4.23,9.07,25.3,775.00,136.6
2020-10-29,08:15:00,DRY,3.40,9.15,25.5,775.00,143.1
2020-10-29,08:20:00,DRY,3.57,9.57,18.0,775.00,143.7
2020-10-29,08:25:00,DRY,4.00,9.95,16.5,775.00,150.4
2020-10-29,08:30:00,DRY,4.10,10.17,13.7,775.00,128.6
2020-10-29,08:35:00,DRY,3.50,10.15,16.0,775.00,178.6
2020-10-29,08:40:00,DRY,3.47,10.17,14.0,775.00,200.0
2020-10-29,08:45:00,DRY,3.35,10.15,13.5,775.00,258.9
2020-10-29,08:50:00,DRY,3.77,10.10,13.3,775.00,335.3
2020-10-29,08:55:00,DRY,3.60,10.25,12.5,775.00,398.3
2020-10-29,09:00:00,DRY,2.93,10.73,11.7,775.00,473.5
2020-10-29,09:05:00,DRY,3.25,11.55,12.5,775.00,504.9
2020-10-29,09:10:00,DRY,2.70,12.20,11.0,775.00,531.1
2020-10-29,09:15:00,DRY,2.35,12.40,10.5,775.00,535.1
2020-10-29,09:20:00,DRY,2.07,12.47,10.0,775.00,507.5
2020-10-29,09:25:00,DRY,2.55,12.20,9.5,775.00,376.8
2020-10-29,09:30:00,DRY,2.33,12.03,10.7,775.00,309.8
2020-10-29,09:35:00,DRY,3.20,12.00,12.0,775.00,475.1
2020-10-29,09:40:00,DRY,2.63,12.00,13.7,775.00,323.7
2020-10-29,09:45:00,DRY,3.10,11.30,13.0,775.00,220.5
2020-10-29,09:50:00,DRY,2.87,11.70,10.7,775.00,447.6
2020-10-29,09:55:00,DRY,1.40,12.50,11.0,775.00,493.1
2020-10-29,10:00:00,DRY,0.97,13.10,10.0,775.00,657.9
2020-10-29,10:05:00,DRY,1.85,13.15,9.5,775.00,673.0
2020-10-29,10:10:00,DRY,1.37,13.13,9.7,775.00,667.4
2020-10-29,10:15:00,DRY,1.45,13.25,11.0,775.00,699.1
2020-10-29,10:20:00,DRY,2.13,13.33,14.0,775.00,736.1
2020-10-29,10:25:00,DRY,2.30,13.25,14.0,775.00,753.3
2020-10-29,10:30:00,DRY,1.80,13.40,15.0,775.00,753.1
2020-10-29,10:35:00,DRY,0.60,13.85,17.0,775.00,773.0
2020-10-29,10:40:00,DRY,1.33,14.50,17.3,775.00,790.0
2020-10-29,10:45:00,DRY,1.10,14.45,19.5,775.00,808.2
2020-10-29,10:50:00,DRY,1.77,14.20,19.7,775.00,826.5
2020-10-29,10:55:00,DRY,2.05,13.85,17.0,775.00,835.7
2020-10-29,11:00:00,DRY,1.43,14.33,19.7,775.00,806.3
2020-10-29,11:05:00,DRY,1.35,14.00,18.0,775.00,825.1
2020-10-29,11:10:00,DRY,1.80,13.37,13.3,775.00,668.8
2020-10-29,11:15:00,DRY,2.00,13.05,10.5,775.00,856.0
2020-10-29,11:20:00,DRY,2.00,12.97,18.7,775.00,870.1
2020-10-29,11:25:00,DRY,2.05,12.15,26.0,775.00,514.8
2020-10-29,11:30:00,DRY,1.03,12.10,24.7,775.00,722.9
2020-10-29,11:35:00,DRY,0.80,12.75,28.5,775.00,947.7
2020-10-29,11:40:00,DRY,1.67,13.57,28.3,775.00,971.0
2020-10-29,11:45:00,DRY,1.45,14.00,30.0,775.00,964.2
2020-10-29,11:50:00,DRY,1.70,14.03,30.0,775.00,925.0
2020-10-29,11:55:00,DRY,2.55,14.15,26.5,775.00,913.6
2020-10-29,12:00:00,DRY,1.93,13.73,25.3,775.00,958.8
2020-10-29,12:05:00,DRY,1.55,13.80,24.5,775.00,992.3
2020-10-29,12:10:00,DRY,2.07,13.33,29.0,775.00,936.6
2020-10-29,12:15:00,DRY,1.30,13.05,29.5,775.00,821.2
2020-10-29,12:20:00,DRY,1.83,13.30,31.0,775.00,931.5
2020-10-29,12:25:00,DRY,2.05,12.95,31.5,775.00,872.4
2020-10-29,12:30:00,DRY,1.67,12.80,30.0,775.00,775.4
2020-10-29,12:35:00,DRY,2.30,12.90,26.5,775.00,672.3
2020-10-29,12:40:00,DRY,2.63,12.97,31.3,775.00,944.8
2020-10-29,12:45:00,DRY,2.60,12.55,28.5,775.00,1010.0
2020-10-29,12:50:00,DRY,2.20,13.07,27.0,775.00,897.6
2020-10-29,12:55:00,DRY,2.70,13.50,16.0,775.00,982.8
2020-10-29,13:00:00,DRY,3.40,13.50,23.0,775.00,995.6
2020-10-29,13:05:00,DRY,2.10,11.95,45.0,775.00,949.3
2020-10-29,13:10:00,DRY,2.37,12.17,42.3,775.00,984.4
2020-10-29,13:15:00,DRY,1.55,12.40,30.0,775.00,979.5
2020-10-29,13:20:00,DRY,2.17,12.10,32.0,775.00,968.1
2020-10-29,13:25:00,DRY,2.35,12.35,31.0,774.50,887.9
2020-10-29,13:30:00,DRY,1.60,12.50,27.0,775.00,872.2
2020-10-29,13:35:00,DRY,3.00,13.60,24.0,774.00,939.4
2020-10-29,13:40:00,DRY,1.80,13.57,25.3,774.00,941.8
2020-10-29,13:45:00,DRY,2.10,13.50,29.0,774.00,930.8
2020-10-29,13:50:00,DRY,3.03,13.20,23.3,774.00,921.8
2020-10-29,13:55:00,DRY,3.05,13.30,16.0,774.00,916.0
2020-10-29,14:00:00,DRY,2.27,13.47,15.7,774.00,908.2
2020-10-29,14:05:00,DRY,1.95,13.10,23.0,774.00,902.2
2020-10-29,14:10:00,DRY,1.53,13.57,13.7,774.00,894.2
2020-10-29,14:15:00,DRY,2.00,13.65,18.5,774.00,884.2
2020-10-29,14:20:00,DRY,2.50,13.50,17.0,774.00,875.0